User: anonymous   Login
Location: El Limón
(10.3059°N, 67.6321°W)
Time: 18:10:11
(UTC+00:00)
Language:

SL-08 RB Rocket - Orbit

View from above orbital plane
View from above orbital plane
View from above satellite
View from above satellite

Ground track
Ground track

The orbit data is extracted from the following two-line orbital elements,

1 26387U 00033D   24171.96645389  .00001118  00000-0  18870-3 0  9995
2 26387  97.7572 161.9042 0027064  79.0392 281.3858 14.71059987541351
Epoch (UTC): 19 June 2024 23:11:41
Eccentricity: 0.0027064
inclination: 97.7572°
perigee height: 638 km
apogee height: 677 km
right ascension of ascending node: 161.9042°
argument of perigee: 79.0392°
revolutions per day: 14.71059987
mean anomaly at epoch: 281.3858°
orbit number at epoch: 54135

The dashed part of the orbit path shows where the satellite is in the earth's shadow,  

DLR